Location: Berlise
(49.6641°N, 4.1077°E)
Time: 23:41:45
(UTC+00:00)

USA 308 - Pass Details

Date: 27 January 2021
Orbit: 568 x 578 km, 54.0° (Epoch: 28 February)

Event Time Altitude Azimuth Distance (km) Brightness Sun altitude
Exits shadow 04:52:43 46° 170° (S) 771 3.5 -24.1°
Maximum altitude 04:53:15 49° 144° (SE) 739 3.6 -24.0°
Drops below altitude 10° 04:57:21 10° 70° (ENE) 1,871 6.5 -23.4°
Sets 04:59:39 0° 65° (ENE) 2,772 7.4 -23.0°
